TimePDT,TemperatureF,Dew PointF,Humidity,Sea Level PressureIn,VisibilityMPH,Wind Direction,Wind SpeedMPH,Gust SpeedMPH,PrecipitationIn,Events,Conditions,WindDirDegrees,DateUTC
12:15 AM,32.0,15.8,51,30.25,10.0,Calm,Calm,-,N/A,,Clear,0,2013-10-07 07:15:00
12:35 AM,35.6,17.6,48,30.25,10.0,Calm,Calm,-,N/A,,Clear,0,2013-10-07 07:35:00
12:55 AM,37.4,17.6,45,30.25,10.0,SE,3.5,-,N/A,,Clear,130,2013-10-07 07:55:00
1:15 AM,32.0,15.8,51,30.24,10.0,Calm,Calm,-,N/A,,Clear,0,2013-10-07 08:15:00
1:35 AM,33.8,17.6,52,30.24,10.0,Calm,Calm,-,N/A,,Clear,0,2013-10-07 08:35:00
1:55 AM,32.0,17.6,55,30.24,10.0,Calm,Calm,-,N/A,,Clear,0,2013-10-07 08:55:00
2:15 AM,32.0,17.6,55,30.23,10.0,Calm,Calm,-,N/A,,Clear,0,2013-10-07 09:15:00
2:35 AM,32.0,17.6,55,30.23,10.0,Calm,Calm,-,N/A,,Clear,0,2013-10-07 09:35:00
2:55 AM,32.0,17.6,55,30.23,10.0,Calm,Calm,-,N/A,,Clear,0,2013-10-07 09:55:00
3:15 AM,32.0,17.6,55,30.23,10.0,Calm,Calm,-,N/A,,Clear,0,2013-10-07 10:15:00
3:35 AM,30.2,17.6,60,30.22,10.0,SSE,3.5,-,N/A,,Clear,160,2013-10-07 10:35:00
3:55 AM,30.2,17.6,60,30.22,10.0,Calm,Calm,-,N/A,,Clear,0,2013-10-07 10:55:00
4:15 AM,30.2,17.6,60,30.21,10.0,Calm,Calm,-,N/A,,Clear,0,2013-10-07 11:15:00
4:35 AM,28.4,17.6,64,30.21,10.0,Calm,Calm,-,N/A,,Clear,0,2013-10-07 11:35:00
4:55 AM,26.6,15.8,64,30.22,10.0,SE,3.5,-,N/A,,Clear,140,2013-10-07 11:55:00
5:15 AM,24.8,15.8,69,30.21,10.0,SSW,3.5,-,N/A,,Clear,200,2013-10-07 12:15:00
5:35 AM,26.6,17.6,69,30.21,10.0,Calm,Calm,-,N/A,,Clear,0,2013-10-07 12:35:00
5:55 AM,30.2,17.6,60,30.21,10.0,Calm,Calm,-,N/A,,Clear,0,2013-10-07 12:55:00
6:15 AM,24.8,15.8,69,30.20,10.0,Calm,Calm,-,N/A,,Clear,0,2013-10-07 13:15:00
6:35 AM,26.6,17.6,69,30.20,10.0,Calm,Calm,-,N/A,,Clear,0,2013-10-07 13:35:00
6:55 AM,24.8,15.8,69,30.21,10.0,Calm,Calm,-,N/A,,Scattered Clouds,0,2013-10-07 13:55:00
7:45 AM,26.6,17.6,69,30.21,10.0,Calm,Calm,-,N/A,,Scattered Clouds,0,2013-10-07 14:45:00
8:45 AM,32.0,17.6,55,30.21,10.0,Calm,Calm,-,N/A,,Scattered Clouds,0,2013-10-07 15:45:00
9:45 AM,39.2,19.4,45,30.20,10.0,Calm,Calm,-,N/A,,Mostly Cloudy,0,2013-10-07 16:45:00
10:50 AM,51.8,21.2,30,30.18,10.0,Calm,Calm,-,N/A,,Mostly Cloudy,0,2013-10-07 17:50:00
11:50 AM,62.6,14.0,15,30.16,10.0,NNE,4.6,-,N/A,,Mostly Cloudy,20,2013-10-07 18:50:00
12:55 PM,64.4,12.2,13,30.13,10.0,SW,9.2,18.4,N/A,,Scattered Clouds,220,2013-10-07 19:55:00
1:55 PM,66.2,10.4,11,30.11,10.0,SW,9.2,-,N/A,,Scattered Clouds,220,2013-10-07 20:55:00
2:45 PM,64.4,12.2,13,30.10,10.0,SW,10.4,20.7,N/A,,Mostly Cloudy,220,2013-10-07 21:45:00
3:55 PM,66.2,14.0,13,30.09,10.0,SW,12.7,18.4,N/A,,Mostly Cloudy,220,2013-10-07 22:55:00
4:55 PM,64.4,14.0,14,30.08,10.0,WSW,10.4,-,N/A,,Mostly Cloudy,240,2013-10-07 23:55:00
5:45 PM,59.0,14.0,17,30.08,10.0,West,9.2,-,N/A,,Mostly Cloudy,260,2013-10-08 00:45:00
5:55 PM,59.0,14.0,17,30.07,10.0,SW,6.9,-,N/A,,Clear,230,2013-10-08 00:55:00
6:15 PM,59.0,14.0,17,30.08,10.0,West,8.1,16.1,N/A,,Clear,260,2013-10-08 01:15:00
6:35 PM,57.2,15.8,20,30.07,10.0,West,6.9,-,N/A,,Clear,260,2013-10-08 01:35:00
6:55 PM,55.4,15.8,21,30.07,10.0,West,6.9,-,N/A,,Clear,260,2013-10-08 01:55:00
7:15 PM,55.4,17.6,23,30.07,10.0,WSW,8.1,-,N/A,,Clear,250,2013-10-08 02:15:00
7:35 PM,53.6,17.6,24,30.07,10.0,SW,8.1,-,N/A,,Clear,230,2013-10-08 02:35:00
7:55 PM,53.6,17.6,24,30.08,10.0,West,4.6,-,N/A,,Clear,270,2013-10-08 02:55:00
8:15 PM,51.8,17.6,26,30.08,10.0,NNW,5.8,-,N/A,,Clear,340,2013-10-08 03:15:00
8:35 PM,53.6,17.6,24,30.09,10.0,NNW,4.6,-,N/A,,Clear,340,2013-10-08 03:35:00
8:55 PM,53.6,17.6,24,30.08,10.0,West,4.6,-,N/A,,Clear,280,2013-10-08 03:55:00
9:15 PM,46.4,17.6,32,30.08,10.0,Calm,Calm,-,N/A,,Clear,0,2013-10-08 04:15:00
9:35 PM,50.0,17.6,28,30.09,10.0,North,4.6,-,N/A,,Clear,10,2013-10-08 04:35:00
9:55 PM,50.0,17.6,28,30.09,10.0,WNW,4.6,-,N/A,,Clear,290,2013-10-08 04:55:00
10:15 PM,44.6,17.6,34,30.08,10.0,ESE,3.5,-,N/A,,Partly Cloudy,120,2013-10-08 05:15:00
10:35 PM,44.6,17.6,34,30.08,10.0,Calm,Calm,-,N/A,,Clear,0,2013-10-08 05:35:00
10:55 PM,44.6,19.4,37,30.08,10.0,South,3.5,-,N/A,,Clear,190,2013-10-08 05:55:00
11:15 PM,44.6,19.4,37,30.08,10.0,Calm,Calm,-,N/A,,Clear,0,2013-10-08 06:15:00
11:35 PM,42.8,17.6,36,30.08,10.0,South,3.5,-,N/A,,Clear,180,2013-10-08 06:35:00
11:55 PM,39.2,17.6,42,30.08,10.0,SSE,4.6,-,N/A,,Clear,150,2013-10-08 06:55:00